Flag for U.S.A. Weather past 2 weeks in Rancho Cucamonga, California, U.S.A.

Now
80 °F

Passing clouds.


Feels Like: 80 °F
Forecast: 58 / 81 °F
Wind: 10 mph from Southwest

Location: Ontario International Airport

Current Time: Oct 21, 2014 at 3:35:42 PM

Latest Report: Oct 21, 2014 at 2:53 PM


Visibility: 10 mi

Pressure: 29.81 "Hg

Humidity: 35%

Dew point: 50 °F

Location of Rancho CucamongaLocation

Historic Weather in Rancho Cucamonga — Graph

°F

Rancho Cucamonga temperature yesterday

Maximum temperature yesterday: 80 °F (at 3:53 PM)
Minimum temperature yesterday: 59 °F (at 6:53 AM)
Average temperature yesterday: 67 °F

Past Weeks' High & Low Weather Summary

 TemperatureHumidityPressure
High96 °F (Oct 6, 2:53 PM)97% (Oct 20, 8:53 AM)30.01 "Hg (Oct 20, 8:53 AM)
Low58 °F (Oct 17, 6:53 AM)9% (Oct 6, 1:53 PM)29.75 "Hg (Oct 8, 3:53 PM)
Average70 °F62%29.89 "Hg
* Reported Oct 6 1:53 PM — Oct 21 1:53 PM, Rancho Cucamonga, Weather by CustomWeather, © 2014

Note: Actual official high and low records may vary slightly from our data, if they occured in-between our weather recording intervals... More about our weather records

Advertising

Rancho Cucamonga weather history for previous 24 hours

 ConditionsComfort  
Time TempWeatherWind HumidityBarometerVisibility
1:53 PM
Oct 21
78 °FScattered clouds.7 mph45%29.83 "Hg7 mi
12:53 PM75 °FScattered clouds.6 mph55%29.86 "Hg4 mi
11:53 AM70 °FHaze.3 mph68%29.88 "Hg3 mi
10:53 AM66 °FScattered clouds.5 mph78%29.90 "Hg2 mi
9:53 AM63 °FFog.3 mph87%29.91 "Hg2 mi
8:53 AM62 °FFog.3 mph90%29.91 "Hg2 mi
8:03 AM62 °FFog.No wind90%29.93 "Hg2 mi
7:53 AM62 °FFog.No wind90%29.90 "Hg3 mi
6:53 AM61 °FFog.No wind90%29.88 "Hg4 mi
5:53 AM59 °FFog.No wind90%29.88 "Hg4 mi
4:53 AM61 °FFog.No wind90%29.87 "Hg5 mi
3:53 AM61 °FFog.No wind93%29.86 "Hg4 mi
2:53 AM60 °FFog.No wind93%29.87 "Hg5 mi
1:53 AM61 °FFog.No wind90%29.88 "Hg6 mi
12:53 AM61 °FPassing clouds.3 mph90%29.89 "Hg7 mi
11:53 PM
Oct 20
63 °FPassing clouds.6 mph87%29.89 "Hg8 mi
10:53 PM65 °FPassing clouds.No wind81%29.90 "Hg10 mi
9:53 PM65 °FPassing clouds.5 mph81%29.90 "Hg10 mi
8:53 PM66 °FPassing clouds.7 mph78%29.88 "Hg10 mi
7:53 PM69 °FPassing clouds.8 mph73%29.87 "Hg10 mi
6:53 PM71 °FScattered clouds.9 mph68%29.86 "Hg10 mi
5:53 PM75 °FScattered clouds.10 mph58%29.82 "Hg10 mi
4:53 PM79 °FScattered clouds.9 mph44%29.83 "Hg10 mi
3:53 PM80 °FScattered clouds.8 mph41%29.83 "Hg10 mi
Weather by CustomWeather, © 2014

See weather overviewHow to use our weather pages